Date,TemperatureHighF,TemperatureAvgF,TemperatureLowF,DewpointHighF,DewpointAvgF,DewpointLowF,HumidityHigh,HumidityAvg,HumidityLow,PressureMaxIn,PressureMinIn,WindSpeedMaxMPH,WindSpeedAvgMPH,GustSpeedMaxMPH,PrecipitationSumIn
2013-1-1,27.4,13.1,0.2,24.8,8.6,-3.0,97,82,76,30.04,29.80,23,7,23,0.00
2013-1-2,9.2,-1.0,-9.4,3.7,-5.5,-13.4,84,81,76,30.30,30.02,14,2,14,0.00
2013-1-3,14.8,0.6,-16.1,11.1,-3.4,-20.2,85,83,77,30.31,30.15,4,0,4,0.00
2013-1-4,26.6,18.0,14.8,23.8,14.6,11.1,91,86,85,30.15,29.88,26,4,26,0.00
2013-1-5,28.0,23.0,15.5,24.4,18.1,12.7,90,82,66,30.29,29.92,25,7,25,0.01
2013-1-6,30.6,26.7,19.1,28.0,24.1,16.4,92,90,86,30.18,29.95,15,3,15,0.00
2013-1-7,29.6,19.9,14.0,27.3,16.5,11.5,92,86,77,30.41,30.02,12,3,12,0.00
2013-1-8,31.9,23.5,15.2,24.9,19.2,12.5,92,84,71,30.44,30.26,17,2,17,0.00
2013-1-9,38.1,23.9,5.4,32.1,19.5,2.6,92,83,73,30.42,30.02,30,6,30,0.11
2013-1-10,32.9,27.3,16.9,27.2,22.0,14.4,90,81,67,30.60,30.22,32,6,32,0.01
2013-1-11,38.6,28.1,15.0,33.6,23.3,12.4,92,83,50,30.57,30.11,18,3,18,0.20
2013-1-12,49.4,36.2,31.0,44.9,34.1,29.1,95,92,82,30.16,30.06,9,1,9,0.22
2013-1-13,53.9,41.3,30.2,49.9,39.1,28.8,96,92,85,30.14,29.89,20,3,20,0.03
2013-1-14,48.2,34.2,26.5,47.0,29.7,19.4,96,84,68,30.35,29.81,21,7,21,0.00
2013-1-15,27.6,25.2,21.5,21.8,18.4,15.7,85,75,64,30.40,30.26,13,3,13,0.00
2013-1-16,29.4,26.9,24.1,26.8,22.8,18.8,92,84,79,30.26,29.83,21,2,21,0.00
2013-1-17,28.7,18.7,8.1,24.9,9.4,-8.5,91,68,40,30.20,29.84,20,6,20,0.00
2013-1-18,18.4,8.4,-5.0,9.5,-0.9,-9.2,92,66,52,30.45,30.16,20,4,20,0.00
2013-1-19,41.1,31.3,18.4,25.3,18.6,8.8,84,60,48,30.27,29.56,22,5,22,0.04
2013-1-20,41.6,25.4,8.6,29.9,17.3,1.0,93,73,48,30.02,29.44,40,12,40,0.04
2013-1-21,15.1,10.5,5.7,11.7,5.4,-1.0,89,80,70,30.09,29.86,14,1,14,0.00
2013-1-22,12.0,5.2,-2.8,8.8,-0.7,-13.9,89,77,58,30.16,29.84,18,6,18,0.00
2013-1-23,-1.7,-8.9,-18.0,-13.2,-17.1,-32.5,92,67,48,30.28,30.15,18,3,18,0.00
2013-1-24,2.8,-9.8,-21.8,-6.1,-16.4,-26.7,92,73,49,30.54,30.28,17,3,17,0.00
2013-1-25,10.3,-0.1,-15.8,2.6,-7.9,-20.2,84,71,47,30.55,30.17,6,1,6,0.00
2013-1-26,11.6,2.4,-8.0,2.1,-4.0,-12.1,85,75,48,30.45,30.17,13,2,13,0.00
2013-1-27,18.6,6.3,-8.5,1.8,-2.0,-12.5,86,70,40,30.63,30.45,12,1,12,0.01
2013-1-28,25.0,19.1,8.5,23.0,14.9,1.6,92,84,68,30.56,30.00,12,1,12,0.00
2013-1-29,41.4,30.3,22.5,40.1,28.3,20.5,95,92,91,30.17,29.95,12,1,12,0.65
2013-1-30,57.1,49.2,41.1,50.9,46.1,39.3,96,89,75,29.96,29.22,26,6,26,0.70
2013-1-31,48.3,27.9,14.8,46.9,25.1,12.4,95,89,70,29.60,28.91,34,11,34,0.71